| time (UTC) | temp C | wind direction | speed KPH | gust KPH | rain 1hr cm | rain 24hr cm | rain mn cm | humidity % | barometer mb |
| 20260503220537 | 15 | 270 | 8.0 | 14.5 | 0.00 | 0.00 | 0.00 | 34 | 1011.7 |
| 20260503215537 | 16 | 248 | 4.8 | 9.7 | 0.00 | 0.00 | 0.00 | 34 | 1011.7 |
| 20260503214537 | 16 | 270 | 11.3 | 19.3 | 0.00 | 0.00 | 0.00 | 32 | 1011.5 |
| 20260503213516 | 16 | 248 | 9.7 | 11.3 | 0.00 | 0.00 | 0.00 | 32 | 1011.5 |
| 20260503212516 | 16 | 0.0 | 3.2 | 0.00 | 0.00 | 0.00 | 34 | 1011.5 | |
| 20260503211537 | 16 | 203 | 4.8 | 9.7 | 0.00 | 0.00 | 0.00 | 35 | 1011.6 |
| 20260503210516 | 16 | 248 | 9.7 | 20.9 | 0.00 | 0.00 | 0.00 | 34 | 1011.4 |
| 20260503205517 | 16 | 248 | 4.8 | 14.5 | 0.00 | 0.00 | 0.00 | 37 | 1011.5 |
| 20260503204516 | 16 | 248 | 8.0 | 20.9 | 0.00 | 0.00 | 0.00 | 35 | 1011.4 |
| 20260503203517 | 15 | 270 | 11.3 | 17.7 | 0.00 | 0.00 | 0.00 | 36 | 1011.3 |
| 20260503202537 | 15 | 225 | 4.8 | 9.7 | 0.00 | 0.00 | 0.00 | 36 | 1011.4 |
| 20260503201517 | 15 | 225 | 11.3 | 19.3 | 0.00 | 0.00 | 0.00 | 38 | 1011.4 |
| 20260503200537 | 15 | 315 | 4.8 | 11.3 | 0.00 | 0.00 | 0.00 | 37 | 1011.4 |
| 20260503195516 | 15 | 45 | 4.8 | 9.7 | 0.00 | 0.00 | 0.00 | 36 | 1011.7 |
| 20260503194517 | 15 | 225 | 4.8 | 9.7 | 0.00 | 0.00 | 0.00 | 41 | 1011.6 |
| 20260503193537 | 15 | 203 | 12.9 | 20.9 | 0.00 | 0.00 | 0.00 | 38 | 1011.7 |
| 20260503192537 | 15 | 270 | 8.0 | 14.5 | 0.00 | 0.00 | 0.00 | 40 | 1011.9 |
| 20260503191517 | 15 | 293 | 8.0 | 16.1 | 0.00 | 0.00 | 0.00 | 40 | 1012.0 |
| 20260503190517 | 14 | 203 | 1.6 | 6.4 | 0.00 | 0.00 | 0.00 | 48 | 1012.0 |
| 20260503185517 | 14 | 180 | 4.8 | 8.0 | 0.00 | 0.00 | 0.00 | 41 | 1012.1 |
| 20260503184517 | 14 | 315 | 4.8 | 11.3 | 0.00 | 0.00 | 0.00 | 41 | 1012.2 |
| 20260503183517 | 14 | 315 | 4.8 | 17.7 | 0.00 | 0.00 | 0.00 | 42 | 1012.3 |
| 20260503182517 | 13 | 338 | 4.8 | 8.0 | 0.00 | 0.00 | 0.00 | 46 | 1012.4 |
| 20260503181517 | 12 | 225 | 4.8 | 12.9 | 0.00 | 0.00 | 0.00 | 47 | 1012.5 |
| 20260503180517 | 13 | 270 | 9.7 | 17.7 | 0.00 | 0.00 | 0.00 | 44 | 1012.5 |
| 20260503175537 | 13 | 203 | 4.8 | 8.0 | 0.00 | 0.00 | 0.00 | 45 | 1012.6 |
| 20260503174517 | 12 | 248 | 11.3 | 16.1 | 0.00 | 0.00 | 0.00 | 44 | 1012.5 |
| 20260503173517 | 12 | 23 | 4.8 | 11.3 | 0.00 | 0.00 | 0.00 | 46 | 1012.7 |
| 20260503172517 | 12 | 0 | 3.2 | 8.0 | 0.00 | 0.00 | 0.00 | 46 | 1012.6 |
| 20260503171517 | 12 | 270 | 8.0 | 12.9 | 0.00 | 0.00 | 0.00 | 46 | 1012.6 |
| 20260503170517 | 12 | 293 | 6.4 | 16.1 | 0.00 | 0.00 | 0.00 | 46 | 1012.5 |
| 20260503150517 | 12 | 270 | 3.2 | 4.8 | 0.00 | 0.00 | 0.00 | 49 | 1013.0 |
| 20260503131117 | 9 | 270 | 4.8 | 11.3 | 0.00 | 0.00 | 0.00 | 61 | 1013.1 |
| 20260503130117 | 9 | 225 | 1.6 | 4.8 | 0.00 | 0.00 | 0.00 | 59 | 1013.0 |
| 20260503120117 | 8 | 293 | 3.2 | 4.8 | 0.00 | 0.00 | 0.00 | 61 | 1012.7 |
| 20260503110137 | 8 | 0.0 | 1.6 | 0.00 | 0.00 | 0.00 | 60 | 1012.1 | |
| 20260503100117 | 8 | 338 | 1.6 | 3.2 | 0.00 | 0.00 | 0.00 | 59 | 1011.1 |
| 20260503090117 | 7 | 0.0 | 0.0 | 0.00 | 0.00 | 0.00 | 59 | 1010.7 | |
| 20260503081117 | 9 | 0.0 | 1.6 | 0.00 | 0.00 | 0.00 | 53 | 1010.6 | |
| 20260503080117 | 9 | 0.0 | 3.2 | 0.00 | 0.00 | 0.00 | 52 | 1010.6 | |
| 20260503072137 | 9 | 0.0 | 1.6 | 0.00 | 0.00 | 0.00 | 52 | 1010.5 | |
| 20260503071117 | 10 | 0 | 1.6 | 3.2 | 0.00 | 0.00 | 0.00 | 52 | 1010.4 |
| 20260503070117 | 10 | 338 | 1.6 | 6.4 | 0.00 | 0.00 | 0.00 | 52 | 1010.5 |
| 20260503060117 | 10 | 338 | 1.6 | 4.8 | 0.00 | 0.00 | 0.00 | 50 | 1010.6 |
| 20260503055115 | 10 | 45 | 1.6 | 4.8 | 0.00 | 0.00 | 0.00 | 50 | 1010.9 |
| 20260503054115 | 10 | 0.0 | 3.2 | 0.00 | 0.00 | 0.00 | 51 | 1010.9 | |
| 20260503053115 | 10 | 0.0 | 3.2 | 0.00 | 0.00 | 0.00 | 52 | 1010.7 | |
| 20260503052135 | 11 | 0.0 | 1.6 | 0.00 | 0.00 | 0.00 | 52 | 1010.8 | |
| 20260503051115 | 11 | 0.0 | 1.6 | 0.00 | 0.00 | 0.00 | 51 | 1010.9 | |
| 20260503050155 | 10 | 0.0 | 1.6 | 0.00 | 0.00 | 0.00 | 53 | 1011.2 | |
| 20260503045115 | 10 | 0.0 | 0.0 | 0.00 | 0.00 | 0.00 | 54 | 1011.3 | |
| 20260503044135 | 10 | 0.0 | 4.8 | 0.00 | 0.00 | 0.00 | 55 | 1011.4 | |
| 20260503043115 | 10 | 0.0 | 0.0 | 0.00 | 0.00 | 0.00 | 56 | 1011.5 | |
| 20260503042115 | 11 | 0.0 | 0.0 | 0.00 | 0.00 | 0.00 | 55 | 1011.4 | |
| 20260503041135 | 11 | 0.0 | 0.0 | 0.00 | 0.00 | 0.00 | 55 | 1011.5 | |
| 20260503040135 | 11 | 0.0 | 1.6 | 0.00 | 0.00 | 0.00 | 55 | 1011.4 | |
| 20260503035116 | 11 | 0.0 | 0.0 | 0.00 | 0.00 | 0.00 | 55 | 1011.4 | |
| 20260503034116 | 11 | 0.0 | 0.0 | 0.00 | 0.00 | 0.00 | 55 | 1011.4 | |
| 20260503033136 | 11 | 0.0 | 0.0 | 0.00 | 0.00 | 0.00 | 54 | 1011.2 | |
| 20260503032116 | 11 | 0.0 | 1.6 | 0.00 | 0.00 | 0.00 | 54 | 1011.4 | |
| 20260503031116 | 11 | 0.0 | 0.0 | 0.00 | 0.00 | 0.00 | 56 | 1011.2 | |
| 20260503030116 | 11 | 0.0 | 0.0 | 0.00 | 0.00 | 0.00 | 54 | 1011.5 | |
| 20260503024116 | 11 | 0.0 | 0.0 | 0.00 | 0.00 | 0.00 | 54 | 1011.3 | |
| 20260503023116 | 11 | 0.0 | 0.0 | 0.00 | 0.00 | 0.00 | 54 | 1011.4 | |
| 20260503022116 | 11 | 0.0 | 1.6 | 0.00 | 0.00 | 0.00 | 54 | 1011.4 | |
| 20260503021156 | 11 | 0.0 | 0.0 | 0.00 | 0.00 | 0.00 | 53 | 1011.4 | |
| 20260503020116 | 11 | 0.0 | 0.0 | 0.00 | 0.00 | 0.00 | 52 | 1011.4 | |
| 20260503015116 | 11 | 0.0 | 0.0 | 0.00 | 0.00 | 0.00 | 53 | 1011.5 | |
| 20260503014116 | 11 | 0.0 | 0.0 | 0.00 | 0.00 | 0.00 | 53 | 1011.3 | |
| 20260503013116 | 11 | 0.0 | 0.0 | 0.00 | 0.00 | 0.00 | 52 | 1011.3 | |
| 20260503012136 | 12 | 0.0 | 0.0 | 0.00 | 0.00 | 0.00 | 52 | 1011.4 | |
| 20260503011116 | 12 | 0.0 | 0.0 | 0.00 | 0.00 | 0.00 | 52 | 1011.3 | |
| 20260503010136 | 12 | 0.0 | 1.6 | 0.00 | 0.00 | 0.00 | 51 | 1011.1 | |
| 20260503005116 | 12 | 0.0 | 1.6 | 0.00 | 0.00 | 0.00 | 52 | 1010.9 | |
| 20260503004116 | 12 | 0.0 | 1.6 | 0.00 | 0.00 | 0.00 | 52 | 1010.9 | |
| 20260503003116 | 12 | 0.0 | 0.0 | 0.00 | 0.00 | 0.00 | 50 | 1010.8 | |
| 20260503002116 | 13 | 0.0 | 0.0 | 0.00 | 0.00 | 0.00 | 49 | 1010.8 | |
| 20260503001116 | 13 | 0.0 | 0.0 | 0.00 | 0.00 | 0.00 | 48 | 1010.7 | |
| 20260503000116 | 13 | 0.0 | 1.6 | 0.00 | 0.00 | 0.00 | 47 | 1010.7 | |
| 20260502235116 | 13 | 0.0 | 0.0 | 0.00 | 0.00 | 0.00 | 47 | 1010.6 | |
| 20260502234116 | 14 | 270 | 1.6 | 3.2 | 0.00 | 0.00 | 0.00 | 46 | 1010.7 |
| 20260502233116 | 15 | 0.0 | 0.0 | 0.00 | 0.00 | 0.00 | 45 | 1010.8 | |
| 20260502232117 | 15 | 0.0 | 1.6 | 0.00 | 0.00 | 0.00 | 43 | 1010.7 | |
| 20260502231116 | 15 | 0.0 | 1.6 | 0.00 | 0.00 | 0.00 | 43 | 1010.7 | |
| 20260502230116 | 15 | 270 | 3.2 | 4.8 | 0.00 | 0.00 | 0.00 | 43 | 1010.7 |
| 20260502225116 | 15 | 270 | 3.2 | 4.8 | 0.00 | 0.00 | 0.00 | 43 | 1010.6 |
| 20260502224116 | 15 | 0.0 | 0.0 | 0.00 | 0.00 | 0.00 | 43 | 1010.6 | |
| 20260502223116 | 15 | 293 | 3.2 | 4.8 | 0.00 | 0.00 | 0.00 | 45 | 1010.6 |
| 20260502222116 | 15 | 248 | 1.6 | 4.8 | 0.00 | 0.00 | 0.00 | 44 | 1010.5 |
| 20260502221116 | 15 | 270 | 1.6 | 1.6 | 0.00 | 0.00 | 0.00 | 45 | 1010.3 |